TimeAKST,TemperatureF,Dew PointF,Humidity,Sea Level PressureIn,VisibilityMPH,Wind Direction,Wind SpeedMPH,Gust SpeedMPH,PrecipitationIn,Events,Conditions,WindDirDegrees,DateUTC
12:16 AM,15.8,15.8,100,29.83,10.0,SW,4.6,-,N/A,,Clear,230,2012-12-21 09:16:00
12:36 AM,17.6,14.0,86,29.84,10.0,SW,4.6,-,N/A,,Clear,230,2012-12-21 09:36:00
12:56 AM,19.4,17.6,93,29.84,10.0,SW,4.6,-,N/A,,Clear,230,2012-12-21 09:56:00
1:16 AM,17.6,15.8,93,29.85,10.0,WSW,4.6,-,N/A,,Clear,250,2012-12-21 10:16:00
1:36 AM,17.6,14.0,86,29.85,10.0,SW,5.8,-,N/A,,Clear,220,2012-12-21 10:36:00
1:56 AM,17.6,12.2,79,29.86,10.0,SSW,5.8,-,N/A,,Partly Cloudy,210,2012-12-21 10:56:00
2:16 AM,17.6,14.0,86,29.87,10.0,SW,4.6,-,N/A,,Clear,230,2012-12-21 11:16:00
2:36 AM,17.6,14.0,86,29.87,10.0,SW,4.6,-,N/A,,Clear,220,2012-12-21 11:36:00
2:56 AM,15.8,10.4,79,29.87,10.0,WSW,5.8,-,N/A,,Clear,250,2012-12-21 11:56:00
3:16 AM,15.8,12.2,86,29.88,10.0,WSW,4.6,-,N/A,,Clear,240,2012-12-21 12:16:00
3:36 AM,15.8,12.2,86,29.88,10.0,WSW,4.6,-,N/A,,Scattered Clouds,240,2012-12-21 12:36:00
3:56 AM,17.6,15.8,93,29.88,10.0,SW,3.5,-,N/A,,Mostly Cloudy,230,2012-12-21 12:56:00
4:16 AM,17.6,15.8,93,29.89,10.0,WSW,4.6,-,N/A,,Overcast,240,2012-12-21 13:16:00
4:36 AM,17.6,15.8,93,29.89,10.0,SW,3.5,-,N/A,,Overcast,230,2012-12-21 13:36:00
4:56 AM,17.6,14.0,86,29.89,10.0,SSW,4.6,-,N/A,,Overcast,210,2012-12-21 13:56:00
5:16 AM,17.6,14.0,86,29.89,10.0,SSW,3.5,-,N/A,,Overcast,210,2012-12-21 14:16:00
5:36 AM,17.6,12.2,79,29.89,10.0,WSW,4.6,-,N/A,,Overcast,250,2012-12-21 14:36:00
5:56 AM,17.6,15.8,93,29.89,10.0,WSW,3.5,-,N/A,,Overcast,240,2012-12-21 14:56:00
6:16 AM,17.6,17.6,100,29.89,10.0,Calm,Calm,-,N/A,,Overcast,0,2012-12-21 15:16:00
6:36 AM,17.6,12.2,79,29.89,10.0,Calm,Calm,-,N/A,,Overcast,0,2012-12-21 15:36:00
6:56 AM,19.4,15.8,86,29.90,10.0,Calm,Calm,-,N/A,,Overcast,0,2012-12-21 15:56:00
7:16 AM,19.4,15.8,86,29.89,10.0,SW,4.6,-,N/A,,Overcast,220,2012-12-21 16:16:00
7:36 AM,19.4,15.8,86,29.90,10.0,Calm,Calm,-,N/A,,Overcast,0,2012-12-21 16:36:00
7:56 AM,17.6,14.0,86,29.89,10.0,SW,4.6,-,N/A,,Scattered Clouds,220,2012-12-21 16:56:00
8:16 AM,17.6,12.2,79,29.90,10.0,Calm,Calm,-,N/A,,Scattered Clouds,0,2012-12-21 17:16:00
8:36 AM,17.6,12.2,79,29.90,10.0,SSW,3.5,-,N/A,,Scattered Clouds,200,2012-12-21 17:36:00
8:56 AM,14.0,12.2,93,29.90,10.0,WSW,4.6,-,N/A,,Scattered Clouds,250,2012-12-21 17:56:00
9:16 AM,15.8,12.2,86,29.90,10.0,SW,4.6,-,N/A,,Scattered Clouds,220,2012-12-21 18:16:00
9:36 AM,14.0,8.6,79,29.91,10.0,WSW,4.6,-,N/A,,Scattered Clouds,240,2012-12-21 18:36:00
9:56 AM,17.6,12.2,79,29.91,10.0,Calm,Calm,-,N/A,,Scattered Clouds,0,2012-12-21 18:56:00
10:16 AM,19.4,15.8,86,29.91,10.0,Calm,Calm,-,N/A,,Scattered Clouds,0,2012-12-21 19:16:00
10:36 AM,15.8,10.4,79,29.90,10.0,Calm,Calm,-,N/A,,Scattered Clouds,0,2012-12-21 19:36:00
10:56 AM,19.4,14.0,80,29.90,10.0,SW,3.5,-,N/A,,Partly Cloudy,220,2012-12-21 19:56:00
11:16 AM,19.4,12.2,74,29.89,10.0,Calm,Calm,-,N/A,,Partly Cloudy,0,2012-12-21 20:16:00
11:36 AM,19.4,14.0,80,29.89,10.0,Calm,Calm,-,N/A,,Partly Cloudy,0,2012-12-21 20:36:00
11:56 AM,19.4,15.8,86,29.88,10.0,Calm,Calm,-,N/A,,Clear,0,2012-12-21 20:56:00
12:16 PM,19.4,15.8,86,29.88,10.0,Calm,Calm,-,N/A,,Clear,0,2012-12-21 21:16:00
12:36 PM,19.4,14.0,80,29.89,10.0,Calm,Calm,-,N/A,,Clear,0,2012-12-21 21:36:00
12:56 PM,19.4,14.0,80,29.89,10.0,WSW,3.5,-,N/A,,Clear,250,2012-12-21 21:56:00
1:16 PM,19.4,15.8,86,29.88,10.0,Calm,Calm,-,N/A,,Clear,0,2012-12-21 22:16:00
1:36 PM,19.4,15.8,86,29.88,10.0,South,3.5,-,N/A,,Clear,190,2012-12-21 22:36:00
1:56 PM,21.2,15.8,80,29.87,10.0,Calm,Calm,-,N/A,,Clear,0,2012-12-21 22:56:00
2:16 PM,19.4,15.8,86,29.87,10.0,Calm,Calm,-,N/A,,Clear,0,2012-12-21 23:16:00
2:36 PM,21.2,14.0,74,29.86,10.0,SSE,3.5,-,N/A,,Clear,160,2012-12-21 23:36:00
2:56 PM,19.4,14.0,80,29.86,10.0,Calm,Calm,-,N/A,,Clear,0,2012-12-21 23:56:00
3:16 PM,19.4,14.0,80,29.85,10.0,South,3.5,-,N/A,,Clear,170,2012-12-22 00:16:00
3:36 PM,19.4,17.6,93,29.84,10.0,SW,3.5,-,N/A,,Clear,220,2012-12-22 00:36:00
3:56 PM,17.6,14.0,86,29.84,10.0,Calm,Calm,-,N/A,,Clear,0,2012-12-22 00:56:00
4:16 PM,17.6,14.0,86,29.84,10.0,South,3.5,-,N/A,,Clear,190,2012-12-22 01:16:00
4:36 PM,14.0,10.4,86,29.83,10.0,WSW,4.6,-,N/A,,Clear,250,2012-12-22 01:36:00
4:56 PM,12.2,8.6,85,29.83,10.0,Calm,Calm,-,N/A,,Clear,0,2012-12-22 01:56:00
5:16 PM,12.2,8.6,85,29.83,10.0,Calm,Calm,-,N/A,,Clear,0,2012-12-22 02:16:00
5:36 PM,12.2,6.8,79,29.84,10.0,WSW,3.5,-,N/A,,Clear,250,2012-12-22 02:36:00
5:56 PM,12.2,10.4,92,29.84,10.0,WSW,5.8,-,N/A,,Clear,250,2012-12-22 02:56:00
6:47 PM,12.2,10.4,92,29.84,10.0,Calm,Calm,-,N/A,,Clear,0,2012-12-22 03:47:00
7:36 PM,-9999,-9999,N/A,-9999,-9999.0,North,-9999.0,-,N/A,,Unknown,0,2012-12-22 04:36:00
7:47 PM,14.0,12.2,93,29.84,10.0,Calm,Calm,-,N/A,,Clear,0,2012-12-22 04:47:00
8:47 PM,14.0,12.2,93,29.84,10.0,Calm,Calm,-,N/A,,Clear,0,2012-12-22 05:47:00
11:36 PM,15.8,10.4,79,29.84,10.0,SW,3.5,-,N/A,,Unknown,230,2012-12-22 08:36:00
11:56 PM,12.2,8.6,85,29.84,10.0,Calm,Calm,-,N/A,,Clear,0,2012-12-22 08:56:00